Resoconti di bolidi

Dec 29, 2019 - Jan 29, 2020
Trovati resoconti: 2226  negli ultimi 30 giorni  Pagina 3 / 45
IDDate e tempo T.U. (Tempo Universale)Data e tempo localeRegioneCittàStatoDur.MagnitudineSuono differitoSuono contemporaneoFrag.OsservatoreLivello di esperienza
Evento 467-2020
467b2020-01-25 02:24 UT2020-01-24 19:24 MSTUS ScottsdaleAZ≈1,5s -9--CassandraM 4
Evento 466-2020
466a2020-01-25 01:45 UT2020-01-24 19:45 CSTUS LeboKS≈1,5s -6---JorgeB 3
466b2020-01-25 01:45 UT2020-01-24 19:45 CSTUS ShamrockTX≈3,5s -23???BrandonT 1
466c2020-01-25 01:45 UT2020-01-24 19:45 CSTUS AlvordTX≈1,5s -7???BrianaC 1
466d2020-01-25 01:47 UT2020-01-24 19:47 CSTUS AxtellNE≈3,5s -19--?BobJ 1
466e2020-01-25 01:47 UT2020-01-24 19:47 CSTUS NormanOK≈3,5s -13??LonnieC 3
466g2020-01-25 01:50 UT2020-01-24 19:50 CSTUS Ponca CityOK≈1,5s -5--?Thomas M 1
466h2020-01-25 01:50 UT2020-01-24 19:50 CSTUS CrescentOK≈7,5s -11--?AutumnS 1
466i2020-01-25 01:45 UT2020-01-24 19:45 CSTUS GoddardKS≈1,5s -10--KyleG 1
466j2020-01-25 01:40 UT2020-01-24 19:40 CSTUS OK≈3,5s -5??-MeganT 2
466k2020-01-25 01:40 UT2020-01-24 19:40 CSTUS Saint FrancisKS≈1,5s -26??PeggyD 2
466l2020-01-25 01:47 UT2020-01-24 19:47 CSTUS MuskogeeOK≈1,5s -13--?CaliG 3
466m2020-01-25 01:48 UT2020-01-24 19:48 CSTUS NickersonKS≈1,5s -14--?LoisM 1
466n2020-01-25 01:48 UT2020-01-24 19:48 CSTUS OK≈1,5s -12???KellyT 1
Evento 465-2020
465a2020-01-25 00:28 UT2020-01-24 19:28 ESTUS NY≈1,5s -10--?VanessaA 1
465b2020-01-25 00:30 UT2020-01-24 19:30 ESTUS NY≈3,5s -11---VH 1
465c2020-01-25 01:00 UT2020-01-24 20:00 ESTUS MineolaNY≈3,5s -12-??DanaC 2
Evento 464-2020
464a2020-01-24 22:24 UT2020-01-24 17:24 ESTCA Saint-HyacintheQuébec≈3,5s -17---Aurée-Lys B 1
Evento 463-2020
463a2020-01-24 18:55 UT2020-01-24 19:55 CETDE NürnbergBayern≈3,5s -12---DennyF 3
463b2020-01-24 18:55 UT2020-01-24 19:55 CETAT Weyregg am AtterseeUpper Austria? 0???ErwinF 5
463c2020-01-24 18:56 UT2020-01-24 19:56 CETDE Neuburg am InnBavaria≈3,5s -16--?BabsR 1
463d2020-01-24 18:57 UT2020-01-24 19:57 CETDE HiltpoltsteinBayern≈1,5s -16---WolfgangV 3
463e2020-01-24 19:00 UT2020-01-24 20:00 CETDE LichtenbergSachsen≈3,5s -7--?Rainer O 2
Evento 462-2020
462a2020-01-24 17:30 UT2020-01-24 18:30 CETDK Viborg<1s -4---UlrikT 2
Evento 461-2020
461a2020-01-24 05:20 UT2020-01-24 06:20 CETDE BraunschweigNiedersachsen≈1,5s -5??-EdaC 1
Evento 460-2020
460a2020-01-23 01:12 UT2020-01-22 20:12 ESTUS AdairMI≈3,5s -12---AlexandraL 3
Evento 459-2020
459a2020-01-18 00:30 UT2020-01-17 20:30 ASTCA BurtonNew Brunswick≈7,5s -13--CoryC 1
Evento 458-2020
458a2020-01-23 06:12 UT2020-01-23 00:12 CSTUS Golden MeadowLA≈20s -23---BillyB 1
Evento 457-2020
457a2020-01-23 21:15 UT2020-01-23 22:15 CETIT Cividale del FriuliFriuli-Venezia Giulia≈3,5s -12??SimoneD 1
457b2020-01-23 21:20 UT2020-01-23 22:20 CETIT TriesteFriuli-Venezia Giulia≈3,5s 0---EsterQ 1
457c2020-01-23 21:20 UT2020-01-23 22:20 CETIT ManiagoFriuli-Venezia Giulia≈3,5s -11--GiovanniV 4
457d2020-01-23 21:21 UT2020-01-23 22:21 CETIT BorgoriccoVeneto≈3,5s -6--DavideB 2
457e2020-01-23 21:15 UT2020-01-23 22:15 CETIT VeneziaVeneto≈1,5s -10--RiccardoN 1
457f2020-01-23 21:30 UT2020-01-23 22:30 CETIT Veneto≈3,5s -11--PaoloD 4
Evento 456-2020
456a2020-01-23 17:55 UT2020-01-23 18:55 CETDE GarrelNiedersachsen<1s -9---Philipp B 2
Evento 455-2020
455a2020-01-23 17:00 UT2020-01-23 18:00 CETIT Pergine ValsuganaTrentino-Alto Adige≈3,5s -4---RolandoE 3
455b2020-01-23 17:05 UT2020-01-23 18:05 CETIT Farra di SoligoVeneto≈3,5s -6-?ChiaraN 1
455c2020-01-23 17:00 UT2020-01-23 18:00 CETIT Pieve di LedroTrentino-Alto Adige≈3,5s -7---ChiaraB 1
455d2020-01-23 17:01 UT2020-01-23 18:01 CETIT Fondo GrandeTrentino-Alto Adige≈3,5s -5--DanieleG 2
Evento 454-2020
454a2020-01-23 12:25 UT2020-01-23 06:25 CSTUS KermitTX≈3,5s -12---JamesP 1
454b2020-01-23 12:40 UT2020-01-23 05:40 MSTUS PeytonCO≈3,5s -8---JoeA 3
454c2020-01-23 12:41 UT2020-01-23 05:41 MSTUS PuebloCO≈3,5s -10??NathanL 1
Evento 453-2020
453a2020-01-23 02:32 UT2020-01-22 21:32 ESTUS HammontonNJ≈3,5s -5---Thomas C 1
Evento 452-2020
452a2020-01-22 05:23 UT2020-01-22 06:23 CETDE FlensburgSchleswig-Holstein≈1,5s -7---Sven T 1
Evento 451-2020
451a2020-01-22 03:45 UT2020-01-22 04:45 CETDE Garmisch-PartenkirchenBayern≈1,5s -8---FrohwaltR 3
Evento 450-2020
450a2020-01-21 16:15 UT2020-01-21 18:15 EET?Geçitkale≈3,5s -6---MerylS 1
Evento 449-2020
449a2020-01-19 16:20 UT2020-01-19 17:20 CETDE NordenhamNiedersachsen≈1,5s -13---StefanK 2
449b2020-01-19 16:45 UT2020-01-19 17:45 CETDE WesterstedeNiedersachsen≈1,5s -26---DeryaP 1
449c2020-01-19 16:40 UT2020-01-19 17:40 CETDE LastrupNiedersachsen>60s 0---kaiW 1
449d2020-01-19 16:30 UT2020-01-19 17:30 CETDE EdewechtNiedersachsen≈3,5s -5--?JeanetteB 2